| time (UTC) | temp C | wind direction | speed KPH | gust KPH | rain 1hr cm | rain 24hr cm | rain mn cm | humidity % | barometer mb |
| 20260506154509 | 10 | 170 | 6.4 | 24.1 | 0.00 | 0.00 | 0.00 | 34 | 1011.4 |
| 20260506153009 | 10 | 187 | 12.9 | 20.9 | 0.00 | 0.00 | 0.00 | 33 | 1011.5 |
| 20260506150010 | 10 | 166 | 14.5 | 32.2 | 0.00 | 0.00 | 0.00 | 33 | 1011.6 |
| 20260506144510 | 9 | 177 | 12.9 | 24.1 | 0.00 | 0.00 | 0.00 | 35 | 1011.6 |
| 20260506143010 | 10 | 161 | 14.5 | 24.1 | 0.00 | 0.00 | 0.00 | 32 | 1011.7 |
| 20260506141509 | 10 | 170 | 16.1 | 22.5 | 0.00 | 0.00 | 0.00 | 31 | 1011.7 |
| 20260506140010 | 10 | 208 | 12.9 | 25.7 | 0.00 | 0.00 | 0.00 | 31 | 1011.8 |
| 20260506134509 | 10 | 197 | 16.1 | 24.1 | 0.00 | 0.00 | 0.00 | 32 | 1011.9 |
| 20260506133013 | 10 | 180 | 8.0 | 24.1 | 0.00 | 0.00 | 0.00 | 32 | 1011.9 |
| 20260506131516 | 9 | 180 | 12.9 | 27.4 | 0.00 | 0.00 | 0.00 | 34 | 1011.9 |
| 20260506130015 | 9 | 216 | 11.3 | 24.1 | 0.00 | 0.00 | 0.00 | 35 | 1012.0 |
| 20260506124509 | 9 | 205 | 14.5 | 32.2 | 0.00 | 0.00 | 0.00 | 37 | 1012.0 |
| 20260506123009 | 9 | 206 | 14.5 | 25.7 | 0.00 | 0.00 | 0.00 | 37 | 1012.1 |
| 20260506121510 | 8 | 148 | 17.7 | 27.4 | 0.00 | 0.00 | 0.00 | 35 | 1012.1 |
| 20260506120010 | 8 | 201 | 16.1 | 25.7 | 0.00 | 0.00 | 0.00 | 34 | 1012.2 |
| 20260506114511 | 9 | 167 | 11.3 | 24.1 | 0.00 | 0.00 | 0.00 | 33 | 1012.3 |
| 20260506113010 | 8 | 125 | 14.5 | 27.4 | 0.00 | 0.00 | 0.00 | 32 | 1012.2 |
| 20260506111510 | 8 | 150 | 14.5 | 25.7 | 0.00 | 0.00 | 0.00 | 32 | 1012.2 |
| 20260506110010 | 9 | 184 | 12.9 | 24.1 | 0.00 | 0.00 | 0.00 | 29 | 1012.3 |
| 20260506104511 | 10 | 169 | 12.9 | 20.9 | 0.00 | 0.00 | 0.00 | 28 | 1012.2 |
| 20260506103023 | 12 | 44 | 0.0 | 19.3 | 0.00 | 0.00 | 0.00 | 16 | 1012.2 |
| 20260506101511 | 12 | 348 | 6.4 | 17.7 | 0.00 | 0.00 | 0.00 | 17 | 1012.3 |
| 20260506100010 | 12 | 348 | 0.0 | 12.9 | 0.00 | 0.00 | 0.00 | 15 | 1012.5 |
| 20260506094525 | 11 | 19 | 6.4 | 17.7 | 0.00 | 0.00 | 0.00 | 18 | 1012.4 |
| 20260506093009 | 12 | 31 | 4.8 | 14.5 | 0.00 | 0.00 | 0.00 | 20 | 1012.5 |
| 20260506091509 | 11 | 74 | 4.8 | 9.7 | 0.00 | 0.00 | 0.00 | 20 | 1012.6 |
| 20260506090009 | 11 | 76 | 0.0 | 6.4 | 0.00 | 0.00 | 0.00 | 24 | 1012.7 |
| 20260506084510 | 11 | 14 | 1.6 | 12.9 | 0.00 | 0.00 | 0.00 | 25 | 1012.6 |
| 20260506083010 | 9 | 76 | 4.8 | 9.7 | 0.00 | 0.00 | 0.00 | 28 | 1012.8 |
| 20260506081510 | 9 | 73 | 3.2 | 12.9 | 0.00 | 0.00 | 0.00 | 28 | 1012.8 |
| 20260506073009 | 9 | 30 | 1.6 | 9.7 | 0.00 | 0.00 | 0.00 | 31 | 1012.8 |
| 20260506071510 | 7 | 27 | 3.2 | 14.5 | 0.00 | 0.00 | 0.00 | 39 | 1012.8 |
| 20260506061510 | 5 | 19 | 6.4 | 14.5 | 0.00 | 0.00 | 0.00 | 49 | 1012.8 |
| 20260506044517 | 0 | 16 | 8.0 | 12.9 | 0.00 | 0.00 | 0.00 | 73 | 1013.1 |
| 20260506043014 | -1 | 355 | 4.8 | 12.9 | 0.00 | 0.00 | 0.00 | 75 | 1013.1 |
| 20260506041510 | -1 | 350 | 6.4 | 9.7 | 0.00 | 0.00 | 0.00 | 76 | 1013.1 |
| 20260506040009 | -1 | 350 | 4.8 | 9.7 | 0.00 | 0.00 | 0.00 | 78 | 1013.0 |
| 20260506034510 | -1 | 348 | 6.4 | 12.9 | 0.00 | 0.00 | 0.00 | 78 | 1012.9 |
| 20260506033009 | -1 | 350 | 4.8 | 9.7 | 0.00 | 0.00 | 0.00 | 79 | 1012.9 |
| 20260506031514 | -1 | 351 | 6.4 | 12.9 | 0.00 | 0.00 | 0.00 | 78 | 1012.7 |
| 20260506030010 | -1 | 355 | 6.4 | 12.9 | 0.00 | 0.00 | 0.00 | 77 | 1012.7 |
| 20260506024510 | -1 | 355 | 6.4 | 9.7 | 0.00 | 0.00 | 0.00 | 77 | 1012.7 |
| 20260506023010 | -1 | 355 | 8.0 | 12.9 | 0.00 | 0.00 | 0.00 | 75 | 1012.8 |
| 20260506021509 | -1 | 360 | 8.0 | 12.9 | 0.00 | 0.00 | 0.00 | 76 | 1012.8 |
| 20260506020010 | -1 | 360 | 8.0 | 9.7 | 0.00 | 0.00 | 0.00 | 76 | 1012.7 |
| 20260506014511 | -1 | 355 | 6.4 | 8.0 | 0.00 | 0.00 | 0.00 | 75 | 1012.7 |
| 20260506013011 | -1 | 360 | 8.0 | 12.9 | 0.00 | 0.00 | 0.00 | 73 | 1012.6 |
| 20260506011510 | -1 | 355 | 9.7 | 12.9 | 0.00 | 0.00 | 0.00 | 73 | 1012.6 |
| 20260506010011 | -1 | 355 | 9.7 | 12.9 | 0.00 | 0.00 | 0.00 | 72 | 1012.6 |
| 20260506004509 | 0 | 360 | 8.0 | 12.9 | 0.00 | 0.00 | 0.00 | 71 | 1012.6 |
| 20260506003009 | 0 | 5 | 8.0 | 9.7 | 0.00 | 0.00 | 0.00 | 69 | 1012.6 |
| 20260506001509 | 0 | 11 | 4.8 | 12.9 | 0.00 | 0.00 | 0.00 | 68 | 1012.5 |
| 20260506000010 | 0 | 9 | 6.4 | 9.7 | 0.00 | 0.00 | 0.00 | 67 | 1012.5 |
| 20260505234518 | 0 | 5 | 9.7 | 12.9 | 0.00 | 0.00 | 0.00 | 65 | 1012.5 |
| 20260505233015 | 1 | 16 | 4.8 | 8.0 | 0.00 | 0.00 | 0.00 | 62 | 1012.5 |
| 20260505231513 | 1 | 17 | 4.8 | 8.0 | 0.00 | 0.00 | 0.00 | 64 | 1012.5 |
| 20260505230012 | 1 | 21 | 4.8 | 8.0 | 0.00 | 0.00 | 0.00 | 62 | 1012.5 |
| 20260505224510 | 2 | 24 | 1.6 | 4.8 | 0.00 | 0.00 | 0.00 | 58 | 1012.5 |
| 20260505223011 | 2 | 24 | 1.6 | 6.4 | 0.00 | 0.00 | 0.00 | 57 | 1012.5 |
| 20260505221504 | 3 | 24 | 3.2 | 8.0 | 0.00 | 0.00 | 0.00 | 53 | 1012.4 |
| 20260505220011 | 3 | 28 | 4.8 | 9.7 | 0.00 | 0.00 | 0.00 | 53 | 1012.4 |
| 20260505214510 | 3 | 27 | 3.2 | 12.9 | 0.00 | 0.00 | 0.00 | 53 | 1012.4 |
| 20260505213012 | 3 | 24 | 4.8 | 9.7 | 0.00 | 0.00 | 0.00 | 54 | 1012.4 |
| 20260505211509 | 4 | 11 | 6.4 | 8.0 | 0.00 | 0.00 | 0.00 | 49 | 1012.4 |
| 20260505210011 | 4 | 9 | 4.8 | 11.3 | 0.00 | 0.00 | 0.00 | 47 | 1012.4 |
| 20260505204522 | 5 | 321 | 3.2 | 8.0 | 0.00 | 0.00 | 0.00 | 44 | 1012.3 |
| 20260505203009 | 5 | 321 | 3.2 | 6.4 | 0.00 | 0.00 | 0.00 | 42 | 1012.2 |
| 20260505201510 | 5 | 292 | 3.2 | 8.0 | 0.00 | 0.00 | 0.00 | 40 | 1012.1 |
| 20260505200019 | 6 | 288 | 3.2 | 9.7 | 0.00 | 0.00 | 0.00 | 38 | 1012.0 |
| 20260505194509 | 6 | 281 | 3.2 | 16.1 | 0.00 | 0.00 | 0.00 | 36 | 1011.8 |
| 20260505193010 | 7 | 349 | 6.4 | 16.1 | 0.00 | 0.00 | 0.00 | 36 | 1011.7 |
| 20260505191510 | 7 | 332 | 4.8 | 16.1 | 0.00 | 0.00 | 0.00 | 34 | 1011.7 |
| 20260505190010 | 7 | 333 | 9.7 | 20.9 | 0.00 | 0.00 | 0.00 | 34 | 1011.4 |
| 20260505183029 | 8 | 349 | 8.0 | 24.1 | 0.00 | 0.00 | 0.00 | 33 | 1011.0 |
| 20260505181511 | 10 | 298 | 9.7 | 19.3 | 0.00 | 0.00 | 0.00 | 29 | 1010.9 |
| 20260505180010 | 10 | 348 | 11.3 | 29.0 | 0.00 | 0.00 | 0.00 | 28 | 1010.7 |
| 20260505173018 | 10 | 355 | 11.3 | 20.9 | 0.00 | 0.00 | 0.00 | 27 | 1010.5 |
| 20260505171509 | 10 | 5 | 9.7 | 20.9 | 0.00 | 0.00 | 0.00 | 28 | 1010.5 |
| 20260505170011 | 11 | 317 | 8.0 | 24.1 | 0.00 | 0.00 | 0.00 | 26 | 1010.3 |
| 20260505164510 | 11 | 336 | 6.4 | 30.6 | 0.00 | 0.00 | 0.00 | 25 | 1010.3 |
| 20260505163010 | 11 | 321 | 1.6 | 16.1 | 0.00 | 0.00 | 0.00 | 25 | 1010.2 |
| 20260505161509 | 11 | 351 | 8.0 | 20.9 | 0.00 | 0.00 | 0.00 | 26 | 1010.2 |